User: anonymous   Login
Location: Peebles
(55.6412°N, 3.1714°W)
Time: 07:03:40
(UTC+00:00)
Language:

CSL-04 Rocket - Orbit

View from above orbital plane
View from above orbital plane
View from above satellite
View from above satellite

Ground track
Ground track

The orbit data is extracted from the following two-line orbital elements,

1 25732U 99025C   21336.84311192 -.00000019  00000-0  12216-4 0  9995
2 25732  98.8830  13.5133 0038170 128.3142  44.6202 14.17705962167399
Epoch (UTC): 02 December 2021 20:14:04
Eccentricity: 0.0038170
inclination: 98.8830°
perigee height: 805 km
apogee height: 860 km
right ascension of ascending node: 13.5133°
argument of perigee: 128.3142°
revolutions per day: 14.17705962
mean anomaly at epoch: 44.6202°
orbit number at epoch: 16739

The dashed part of the orbit path shows where the satellite is in the earth's shadow,  

DLR